Flag for Sweden Weather past 2 weeks in Växjö, Sweden

Now
45 °F

Scattered clouds.


Feels Like: 40 °F
Forecast: 38 / 46 °F
Wind: 9 mph from Southwest

Location: Vaxjo Airport

Current Time: Mar 28, 2015 at 12:06:50 PM

Latest Report: Mar 28, 2015 at 11:20 AM


Visibility: N/A

Pressure: 29.95 "Hg

Humidity: 61%

Dew point: 32 °F

Location of VäxjöLocation

Historic Weather in Växjö — Graph

°F

Växjö temperature yesterday

Maximum temperature yesterday: 45 °F (at 11:50 AM)
Minimum temperature yesterday: 34 °F (at 11:50 PM)
Average temperature yesterday: 41 °F

Past Weeks' High & Low Weather Summary

 TemperatureHumidityPressure
High55 °F (Mar 19, 2:20 PM)100% (Mar 17, 2:50 AM)30.77 "Hg (Mar 17, 2:50 AM)
Low16 °F (Mar 22, 4:20 AM)24% (Mar 18, 3:20 PM)29.65 "Hg (Mar 24, 2:50 AM)
Average38 °F75%30.22 "Hg
* Reported Mar 13 10:20 AM — Mar 28 10:50 AM, Växjö, Weather by CustomWeather, © 2015

Note: Actual official high and low records may vary slightly from our data, if they occured in-between our weather recording intervals... More about our weather records

Advertising

Växjö weather history for previous 24 hours

 ConditionsComfort  
Time TempWeatherWind HumidityBarometerVisibility
10:50 AM
Sat, Mar 28
45 °FPassing clouds.9 mph61%29.95 "HgN/A
10:20 AM43 °FPassing clouds.10 mph71%29.95 "HgN/A
9:50 AM43 °FQuite cool.10 mph71%29.95 "HgN/A
9:20 AM39 °FPassing clouds.10 mph81%29.95 "HgN/A
8:50 AM39 °FLow clouds.10 mph87%29.95 "HgN/A
8:20 AM37 °FLow clouds.9 mph93%29.95 "HgN/A
7:50 AM37 °FLow clouds.6 mph93%29.95 "HgN/A
7:20 AM36 °FMostly cloudy.5 mph100%29.95 "HgN/A
6:50 AM36 °FBroken clouds.6 mph93%29.95 "Hg6 mi
6:20 AM34 °FFog.3 mph100%29.95 "Hg4 mi
5:50 AM34 °FFog.5 mph100%29.95 "Hg6 mi
5:20 AM34 °FFog.6 mph100%29.95 "Hg6 mi
4:20 AM34 °FFog.6 mph100%29.95 "Hg6 mi
3:50 AM34 °FFog.6 mph100%29.95 "Hg6 mi
3:20 AM34 °FFog.5 mph93%29.95 "Hg5 mi
2:50 AM32 °FPartly cloudy.5 mph100%29.95 "HgN/A
2:20 AM32 °FPartly cloudy.6 mph100%29.95 "HgN/A
1:50 AM32 °FPassing clouds.5 mph100%29.95 "HgN/A
1:20 AM32 °FChilly.3 mph93%29.92 "HgN/A
12:50 AM32 °FPassing clouds.5 mph93%29.92 "HgN/A
12:20 AM32 °FChilly.5 mph93%29.92 "HgN/A
11:50 PM
Fri, Mar 27
34 °FPassing clouds.5 mph93%29.92 "HgN/A
11:20 PM36 °FChilly.5 mph87%29.92 "HgN/A
10:50 PM36 °FPassing clouds.5 mph87%29.92 "HgN/A
10:20 PM37 °FPassing clouds.5 mph81%29.89 "HgN/A
9:50 PM37 °FPartly cloudy.7 mph87%29.89 "HgN/A
9:20 PM37 °FPassing clouds.5 mph87%29.89 "HgN/A
8:50 PM37 °FPassing clouds.5 mph81%29.89 "HgN/A
8:20 PM37 °FPartly cloudy.3 mph81%29.89 "HgN/A
7:50 PM39 °FPassing clouds.5 mph81%29.89 "HgN/A
7:20 PM41 °FOvercast.5 mph76%29.86 "HgN/A
6:50 PM43 °FPassing clouds.3 mph71%29.86 "HgN/A
6:20 PM43 °FOvercast.6 mph71%29.86 "HgN/A
5:50 PM43 °FOvercast.3 mph71%29.86 "HgN/A
5:20 PM45 °FOvercast.5 mph66%29.83 "HgN/A
4:50 PM45 °FOvercast.5 mph66%29.83 "HgN/A
4:20 PM45 °FOvercast.7 mph66%29.83 "HgN/A
3:50 PM45 °FBroken clouds.8 mph61%29.80 "HgN/A
3:20 PM43 °FBroken clouds.6 mph76%29.80 "HgN/A
2:50 PM45 °FPartly sunny.7 mph66%29.80 "HgN/A
2:20 PM45 °FBroken clouds.7 mph66%29.80 "HgN/A
1:50 PM45 °FBroken clouds.9 mph71%29.80 "HgN/A
1:20 PM45 °FBroken clouds.6 mph71%29.80 "HgN/A
12:50 PM43 °FBroken clouds.6 mph76%29.80 "HgN/A
12:20 PM43 °FPartly sunny.7 mph81%29.77 "HgN/A
Weather by CustomWeather, © 2015

See weather overviewHow to use our weather pages